Tracking 31027 objects as of 19-Jul-2025
HD Live streaming from Space Station
objects crossing your sky now

STARLINK-3296

Track STARLINK-3296 now!
10-day predictions
STARLINK-3296 is classified as:


NORAD ID: 50168
Int'l Code: 2021-125N
Perigee: 546.3 km
Apogee: 547.5 km
Inclination: 53.2 °
Period: 95.4 minutes
Semi major axis: 6917 km
RCS: Unknown
Launch date: December 18, 2021
Source: United States (US)
Launch site: AIR FORCE WESTERN TEST RANGE (AFWTR)
Your satellite tracking list
FLOCK 3P 17
Track 1 satellite(s)




NASA's NSSDC Master Catalog

Two Line Element Set (TLE):
1 50168U 21125N   25199.36104105  .00000505  00000-0  49830-4 0  9995
2 50168  53.2157 221.1524 0000856  78.2107 281.8981 15.08836343201221
Source of the keplerian elements: AFSPC